Weather History for Willmar, MN

Change the Weather History Date:

Sunday, November 6, 2011

  Actual Average (KLJF) Record (KLJF)
Temperature  
Mean Temperature 44 °F -  
Max Temperature 48 °F 44 °F 69 °F (2001)
Min Temperature 39 °F 27 °F -1 °F (1991)
Degree Days  
Heating Degree Days 22    
Moisture  
Dew Point 37 °F    
Average Humidity 72    
Maximum Humidity 87    
Minimum Humidity 46    
Precipitation  
Precipitation 0.00 in - - ()
Sea Level Pressure  
Sea Level Pressure 29.62 in    
Wind  
Wind Speed 18 mph (SSW)    
Max Wind Speed 32 mph    
Max Gust Speed 38 mph    
Visibility 10 miles    
Events Rain    
Averages and records for this station are not official NWS values.
T = Trace of Precipitation, MM = Missing Value Source: NWS Daily Summary

Daily Weather History Graph

Daily Weather History Graph

Search for Another Location

Airport:

Trip Planner

Search our weather history database for the weather conditions in past years. The results will help you decide how hot, cold, wet, or windy it might be!

Date:

Astronomy

Nov. 06, 2011 Rise Set
Actual Time 7:05 AM CST 5:01 PM CST
Civil Twilight 6:34 AM CST 5:32 PM CST
Nautical Twilight 5:59 AM CST 6:07 PM CST
Astronomical Twilight 5:25 AM CST 6:42 PM CST
Moon 2:53 PM CST (11/6) 3:04 AM CST (11/6)
Length of Visible Light 10h 58m
Length of Day
9h 56m
Waxing Gibbous, 86% of the Moon is Illuminated
Nov 6
Waxing Gibbous
Nov 10
Full
Nov 18
Last Quarter
Nov 25
New
Dec 2
First Quarter

Hourly Weather History & Observations

Time (CST) Temp. Windchill Dew Point Humidity Pressure Visibility Wind Dir Wind Speed Gust Speed Precip Events Conditions
12:15 AM 48.2 °F - 42.8 °F 82% 29.62 in 10.0 mi SSE 21.9 mph 26.5 mph N/A   Mostly Cloudy
12:35 AM 48.2 °F - 42.8 °F 82% 29.61 in 10.0 mi SSE 19.6 mph 26.5 mph N/A   Mostly Cloudy
12:55 AM 48.2 °F - 42.8 °F 82% 29.60 in 10.0 mi SSE 21.9 mph 26.5 mph N/A   Mostly Cloudy
1:15 AM 48.2 °F - 42.8 °F 82% 29.60 in 10.0 mi SSE 18.4 mph 26.5 mph N/A   Scattered Clouds
1:35 AM 48.2 °F - 42.8 °F 82% 29.60 in 10.0 mi SSE 17.3 mph 24.2 mph N/A   Scattered Clouds
1:55 AM 48.2 °F - 42.8 °F 82% 29.59 in 10.0 mi SSE 15.0 mph 24.2 mph N/A   Clear
1:15 AM 48.2 °F - 42.8 °F 82% 29.58 in 10.0 mi SSE 18.4 mph 24.2 mph N/A   Clear
1:35 AM 48.2 °F - 42.8 °F 82% 29.58 in 10.0 mi SE 18.4 mph 26.5 mph N/A   Clear
1:55 AM 48.2 °F - 42.8 °F 82% 29.58 in 10.0 mi SSE 16.1 mph 21.9 mph N/A   Scattered Clouds
2:15 AM 48.2 °F - 42.8 °F 82% 29.57 in 10.0 mi SE 15.0 mph 19.6 mph N/A   Scattered Clouds
2:35 AM 48.2 °F - 42.8 °F 82% 29.57 in 10.0 mi SE 13.8 mph - N/A   Scattered Clouds
2:55 AM 48.2 °F - 42.8 °F 82% 29.56 in 10.0 mi SSE 13.8 mph 21.9 mph N/A   Scattered Clouds
3:15 AM 48.2 °F - 42.8 °F 82% 29.56 in 10.0 mi SE 15.0 mph 20.7 mph N/A Rain Light Rain
3:35 AM 48.2 °F - 42.8 °F 82% 29.54 in 10.0 mi SE 17.3 mph 21.9 mph N/A   Mostly Cloudy
3:55 AM 48.2 °F - 42.8 °F 82% 29.53 in 10.0 mi SE 12.7 mph - N/A   Mostly Cloudy
4:15 AM 46.4 °F 40.4 °F 42.8 °F 87% 29.52 in 10.0 mi SE 13.8 mph - N/A   Mostly Cloudy
4:35 AM 46.4 °F 40.4 °F 42.8 °F 87% 29.52 in 10.0 mi SE 13.8 mph - N/A   Scattered Clouds
4:55 AM 46.4 °F 39.8 °F 42.8 °F 87% 29.51 in 10.0 mi SE 16.1 mph - N/A   Scattered Clouds
5:15 AM 46.4 °F 40.4 °F 42.8 °F 87% 29.51 in 10.0 mi SSE 13.8 mph - N/A   Mostly Cloudy
5:35 AM 46.4 °F 40.1 °F 42.8 °F 87% 29.51 in 10.0 mi SSE 15.0 mph 19.6 mph N/A   Overcast
5:55 AM 46.4 °F 40.1 °F 42.8 °F 87% 29.51 in 10.0 mi SSE 15.0 mph - N/A   Overcast
6:15 AM 46.4 °F 40.7 °F 42.8 °F 87% 29.50 in 10.0 mi SSE 12.7 mph 18.4 mph N/A   Mostly Cloudy
6:35 AM 46.4 °F 40.4 °F 42.8 °F 87% 29.50 in 10.0 mi SSE 13.8 mph 18.4 mph N/A   Mostly Cloudy
6:55 AM 46.4 °F 40.1 °F 42.8 °F 87% 29.50 in 10.0 mi SSE 15.0 mph 19.6 mph N/A   Scattered Clouds
7:15 AM 46.4 °F 41.5 °F 41.0 °F 81% 29.50 in 10.0 mi SSE 10.4 mph - N/A   Scattered Clouds
7:35 AM 46.4 °F 41.5 °F 42.8 °F 87% 29.51 in 10.0 mi South 10.4 mph 17.3 mph N/A   Mostly Cloudy
7:55 AM 46.4 °F 42.9 °F 42.8 °F 87% 29.52 in 10.0 mi South 6.9 mph - N/A   Overcast
8:14 AM 46.4 °F 43.5 °F 42.8 °F 87% 29.52 in 10.0 mi South 5.8 mph - N/A   Overcast
8:35 AM 48.2 °F - 42.8 °F 82% 29.53 in 10.0 mi SSW 15.0 mph 20.7 mph N/A   Mostly Cloudy
8:55 AM 46.4 °F 38.1 °F 39.2 °F 76% 29.56 in 10.0 mi West 24.2 mph 31.1 mph N/A   Overcast
9:15 AM 44.6 °F 36.4 °F 37.4 °F 76% 29.58 in 10.0 mi West 20.7 mph 26.5 mph N/A   Overcast
9:35 AM 44.6 °F 36.6 °F 37.4 °F 76% 29.59 in 10.0 mi WSW 19.6 mph 29.9 mph N/A   Mostly Cloudy
10:15 AM 44.6 °F 36.1 °F 37.4 °F 76% 29.61 in 10.0 mi WSW 21.9 mph - N/A   Mostly Cloudy
10:35 AM 44.6 °F 35.7 °F 35.6 °F 71% 29.61 in 10.0 mi WSW 24.2 mph 28.8 mph N/A   Overcast
10:55 AM 42.8 °F 33.3 °F 35.6 °F 76% 29.62 in 10.0 mi WSW 24.2 mph 31.1 mph N/A   Overcast
11:15 AM 44.6 °F 35.7 °F 33.8 °F 66% 29.63 in 10.0 mi West 24.2 mph 29.9 mph N/A   Overcast
11:35 AM 44.6 °F 35.9 °F 33.8 °F 66% 29.65 in 10.0 mi WSW 23.0 mph 24.2 mph N/A   Overcast
11:55 AM 46.4 °F 37.9 °F 35.6 °F 66% 29.66 in 10.0 mi WSW 25.3 mph 32.2 mph N/A   Overcast
12:15 PM 46.4 °F 37.9 °F 33.8 °F 62% 29.67 in 10.0 mi WSW 25.3 mph 31.1 mph N/A   Mostly Cloudy
12:35 PM 46.4 °F 38.3 °F 33.8 °F 62% 29.67 in 10.0 mi WSW 23.0 mph 32.2 mph N/A   Clear
12:55 PM 48.2 °F - 32.0 °F 54% 29.68 in 10.0 mi WSW 28.8 mph 35.7 mph N/A   Clear
1:15 PM 48.2 °F - 32.0 °F 54% 29.69 in 10.0 mi WSW 28.8 mph 38.0 mph N/A   Clear
1:35 PM 48.2 °F - 30.2 °F 50% 29.70 in 10.0 mi WSW 24.2 mph 32.2 mph N/A   Clear
1:55 PM 48.2 °F - 30.2 °F 50% 29.71 in 10.0 mi SW 32.2 mph 38.0 mph N/A   Clear
2:15 PM 48.2 °F - 30.2 °F 50% 29.72 in 10.0 mi WSW 27.6 mph 36.8 mph N/A   Clear
2:35 PM 48.2 °F - 28.4 °F 46% 29.73 in 10.0 mi WSW 26.5 mph 35.7 mph N/A   Clear
2:55 PM 48.2 °F - 28.4 °F 46% 29.73 in 10.0 mi WSW 23.0 mph 32.2 mph N/A   Clear
3:15 PM 48.2 °F - 28.4 °F 46% 29.74 in 10.0 mi WSW 24.2 mph 36.8 mph N/A   Clear
3:35 PM 46.4 °F 38.3 °F 28.4 °F 50% 29.75 in 10.0 mi WSW 23.0 mph 29.9 mph N/A   Clear
3:55 PM 46.4 °F 38.5 °F 28.4 °F 50% 29.76 in 10.0 mi WSW 21.9 mph 33.4 mph N/A   Clear
4:15 PM 46.4 °F 38.1 °F 28.4 °F 50% 29.77 in 10.0 mi WSW 24.2 mph 28.8 mph N/A   Clear
4:35 PM 46.4 °F 39.0 °F 28.4 °F 50% 29.79 in 10.0 mi WSW 19.6 mph 26.5 mph N/A   Clear
4:55 PM 44.6 °F 38.1 °F 28.4 °F 53% 29.80 in 10.0 mi WSW 13.8 mph 17.3 mph N/A   Clear
5:15 PM 44.6 °F 38.4 °F 28.4 °F 53% 29.81 in 10.0 mi WSW 12.7 mph - N/A   Clear
5:35 PM 42.8 °F 37.5 °F 26.6 °F 53% 29.82 in 10.0 mi SW 9.2 mph - N/A   Clear
5:55 PM 39.2 °F 33.6 °F 26.6 °F 61% 29.83 in 10.0 mi SW 8.1 mph - N/A   Clear
6:15 PM 39.2 °F 33.6 °F 26.6 °F 61% 29.83 in 10.0 mi SW 8.1 mph - N/A   Clear
6:34 PM 37.4 °F 31.4 °F 24.8 °F 60% 29.84 in 10.0 mi SW 8.1 mph - N/A   Clear
6:55 PM 39.2 °F 35.0 °F 24.8 °F 56% 29.85 in 10.0 mi SSW 5.8 mph - N/A   Clear
7:15 PM 37.4 °F 32.8 °F 23.0 °F 56% 29.86 in 10.0 mi SSW 5.8 mph - N/A   Clear
7:35 PM 37.4 °F 31.4 °F 21.2 °F 52% 29.87 in 10.0 mi SSW 8.1 mph - N/A   Clear
7:55 PM 37.4 °F 32.1 °F 21.2 °F 52% 29.88 in 10.0 mi SSW 6.9 mph - N/A   Clear
8:15 PM 37.4 °F 32.8 °F 21.2 °F 52% 29.88 in 10.0 mi SSW 5.8 mph - N/A   Clear
8:34 PM 37.4 °F 32.1 °F 21.2 °F 52% 29.89 in 10.0 mi SSW 6.9 mph - N/A   Clear
8:55 PM 37.4 °F 29.3 °F 21.2 °F 52% 29.90 in 10.0 mi SSW 12.7 mph 16.1 mph N/A   Clear
9:15 PM 37.4 °F 28.9 °F 21.2 °F 52% 29.92 in 10.0 mi SW 13.8 mph - N/A   Clear
9:35 PM 37.4 °F 29.8 °F 21.2 °F 52% 29.93 in 10.0 mi SSW 11.5 mph - N/A   Clear
9:55 PM 37.4 °F 29.3 °F 23.0 °F 56% 29.94 in 10.0 mi SW 12.7 mph - N/A   Clear
10:15 PM 37.4 °F 29.3 °F 23.0 °F 56% 29.94 in 10.0 mi SW 12.7 mph - N/A   Clear
10:34 PM 35.6 °F 27.1 °F 23.0 °F 60% 29.95 in 10.0 mi SW 12.7 mph - N/A   Clear
10:55 PM 37.4 °F 29.3 °F 23.0 °F 56% 29.95 in 10.0 mi SW 12.7 mph - N/A   Scattered Clouds